This is the latest recevied weather packets stored in our database for station/object OH1KK. If no packets are shown the sender has not sent any weather packets the latest 10 day(s).
| Time | Temp. | Humidity | Pressure | Rain* | Wind** | Luminosity | Snow |
|---|---|---|---|---|---|---|---|
| 1777602862 | 0° C | 97% | 1011.1 hPa | 0 mm | - | - | - |
| 1777601947 | 0° C | 97% | 1011 hPa | 0 mm | - | - | - |
| 1777601093 | 0.56° C | 97% | 1011 hPa | 0 mm | - | - | - |
| 1777600177 | 0° C | 97% | 1010.9 hPa | 0 mm | - | - | - |
| 1777598347 | 0° C | 96% | 1011 hPa | 0 mm | - | - | - |
| 1777597493 | 0.56° C | 96% | 1011.1 hPa | 0 mm | - | - | - |
| 1777596577 | 0.56° C | 95% | 1011.2 hPa | 0 mm | - | - | - |
| 1777594747 | 2.22° C | 96% | 1011.5 hPa | 0 mm | - | - | - |
| 1777593893 | 1.67° C | 95% | 1011.5 hPa | 0 mm | - | - | - |
| 1777592977 | 1.67° C | 95% | 1011.7 hPa | 0 mm | - | - | - |
| 1777591147 | 1.67° C | 94% | 1011.5 hPa | 0 mm | - | - | - |
| 1777590293 | 2.22° C | 94% | 1011.5 hPa | 0 mm | - | - | - |
| 1777589377 | 2.22° C | 93% | 1011.5 hPa | 0 mm | - | - | - |
| 1777588462 | 2.78° C | 93% | 1011.7 hPa | 0 mm | - | - | - |
| 1777587546 | 2.78° C | 92% | 1011.5 hPa | 0 mm | - | - | - |
| 1777586692 | 2.78° C | 92% | 1011.7 hPa | 0 mm | - | - | - |
| 1777585777 | 3.33° C | 91% | 1011.7 hPa | 0 mm | - | - | - |
| 1777584862 | 3.89° C | 89% | 1011.8 hPa | 0 mm | - | - | - |
| 1777583947 | 3.89° C | 89% | 1011.6 hPa | 0 mm | - | - | - |
| 1777582178 | 5° C | 86% | 1011.7 hPa | 0 mm | - | - | - |
| 1777581263 | 5.56° C | 84% | 1011.8 hPa | 0 mm | - | - | - |
| 1777580348 | 6.11° C | 83% | 1011.8 hPa | 0 mm | - | - | - |
| 1777579494 | 6.11° C | 81% | 1011.9 hPa | 0 mm | - | - | - |
| 1777578581 | 7.22° C | 78% | 1011.7 hPa | 0 mm | - | - | - |
| 1777577665 | 7.78° C | 75% | 1011.9 hPa | 0 mm | - | - | - |
* Rain latest hour (hover to see other rain measurements)
** Current wind speed in m/s (hover to see current wind gust speed)